Seminole, TX

10:44 AM CST on November 12, 2019 (GMT -0600)
Seminole

Weather History for KGNC - October, 2019

Change the Weather History Date:

Wednesday, October 23, 2019

  Actual Average (WUND) Record (WUND)
Temperature  
Mean Temperature 62 °F -  
Max Temperature 81 °F - - (-1)
Min Temperature 43 °F - - (-1)
Degree Days  
Heating Degree Days 3    
Growing Degree Days 12 (Base 50)    
Moisture  
Dew Point 28 °F    
Average Humidity 33    
Maximum Humidity 64    
Minimum Humidity 13    
Precipitation  
Precipitation 0.00 in - - ()
Sea Level Pressure  
Sea Level Pressure 30.02 in    
Wind  
Wind Speed 7 mph (WSW)    
Max Wind Speed 14 mph    
Max Gust Speed 20 mph    
Visibility 10 miles    
Events      
Averages and records for this station are not official NWS values.
T = Trace of Precipitation, MM = Missing Value Source: NWS Daily Summary

Daily Weather History Graph

Daily Weather History Graph

Search for Another Location

Airport or City:

Astronomy

Oct. 23, 2019 Rise Set
Actual Time 8:00 AM CDT 7:08 PM CDT
Civil Twilight 7:35 AM CDT 7:33 PM CDT
Nautical Twilight 7:06 AM CDT 8:02 PM CDT
Astronomical Twilight 6:38 AM CDT 8:31 PM CDT
Moon 2:45 AM CDT (10/23) 4:39 PM CDT (10/23)
Length of Visible Light 11h 58m
Length of Day
11h 08m
Waning Crescent, 26% of the Moon is Illuminated
Oct 23
Waning Crescent
Oct 27
New
Nov 4
First Quarter
Nov 12
Full
Nov 19
Last Quarter

Hourly Weather History & Observations

Time (CDT) Temp. Windchill Dew Point Humidity Pressure Visibility Wind Dir Wind Speed Gust Speed Precip Events Conditions
12:15 AM 48.0 °F - 21.7 °F 36% 30.10 in 10.0 mi SW 8.1 mph - N/A   Clear
12:35 AM 48.6 °F - 21.2 °F 34% 30.09 in 10.0 mi SW 6.9 mph - N/A   Clear
12:55 AM 53.6 °F - 21.0 °F 28% 30.09 in 10.0 mi SSW 6.9 mph - N/A   Clear
1:15 AM 55.6 °F - 27.3 °F 34% 30.08 in 10.0 mi SSW 9.2 mph - N/A   Clear
1:35 AM 56.3 °F - 28.9 °F 35% 30.07 in 10.0 mi SSW 9.2 mph - N/A   Clear
1:55 AM 55.2 °F - 29.5 °F 37% 30.07 in 10.0 mi SW 9.2 mph - N/A   Clear
2:15 AM 54.0 °F - 30.7 °F 41% 30.07 in 10.0 mi SSW 9.2 mph - N/A   Clear
2:35 AM 53.4 °F - 31.6 °F 44% 30.06 in 10.0 mi SW 6.9 mph - N/A   Clear
2:55 AM 50.9 °F - 31.8 °F 48% 30.06 in 10.0 mi SW 6.9 mph - N/A   Clear
3:15 AM 49.1 °F - 32.0 °F 52% 30.06 in 10.0 mi SW 8.1 mph - N/A   Clear
3:35 AM 49.3 °F - 32.0 °F 51% 30.05 in 10.0 mi SW 6.9 mph - N/A   Clear
3:55 AM 48.0 °F - 31.8 °F 54% 30.05 in 10.0 mi WSW 6.9 mph - N/A   Clear
4:15 AM 46.6 °F - 31.6 °F 56% 30.04 in 10.0 mi WSW 8.1 mph - N/A   Clear
4:35 AM 45.9 °F 41.7 °F 31.6 °F 58% 30.04 in 10.0 mi WSW 8.1 mph - N/A   Clear
4:55 AM 45.5 °F 41.8 °F 31.1 °F 57% 30.03 in 10.0 mi WSW 6.9 mph - N/A   Clear
5:15 AM 45.7 °F 41.5 °F 31.1 °F 57% 30.03 in 10.0 mi WSW 8.1 mph - N/A   Clear
5:35 AM 44.2 °F 40.3 °F 30.9 °F 60% 30.03 in 10.0 mi WSW 6.9 mph - N/A   Clear
5:55 AM 45.7 °F 41.5 °F 31.3 °F 57% 30.03 in 10.0 mi WSW 8.1 mph - N/A   Clear
6:15 AM 45.7 °F 41.0 °F 31.1 °F 57% 30.03 in 10.0 mi WSW 9.2 mph - N/A   Clear
6:35 AM 46.0 °F 41.9 °F 31.5 °F 57% 30.03 in 10.0 mi WSW 8.1 mph - N/A   Clear
6:55 AM 45.5 °F 41.3 °F 31.5 °F 58% 30.04 in 10.0 mi SW 8.1 mph - N/A   Clear
7:15 AM 45.5 °F 41.3 °F 31.6 °F 58% 30.03 in 10.0 mi WSW 8.1 mph - N/A   Clear
7:35 AM 44.4 °F 40.5 °F 31.6 °F 61% 30.04 in 10.0 mi WSW 6.9 mph - N/A   Clear
7:55 AM 43.2 °F 39.0 °F 31.6 °F 64% 30.04 in 10.0 mi WSW 6.9 mph - N/A   Clear
8:15 AM 43.2 °F 39.0 °F 31.6 °F 64% 30.04 in 10.0 mi WSW 6.9 mph - N/A   Clear
8:35 AM 45.0 °F 41.8 °F 32.0 °F 60% 30.04 in 10.0 mi West 5.8 mph - N/A   Clear
8:55 AM 47.3 °F - 32.0 °F 55% 30.05 in 10.0 mi West 4.6 mph - N/A   Clear
9:15 AM 50.9 °F - 32.4 °F 49% 30.05 in 10.0 mi SW 8.1 mph - N/A   Clear
9:35 AM 53.6 °F - 32.4 °F 44% 30.06 in 10.0 mi SW 6.9 mph - N/A   Clear
9:55 AM 57.2 °F - 32.9 °F 40% 30.07 in 10.0 mi SW 8.1 mph - N/A   Clear
10:15 AM 61.0 °F - 32.0 °F 34% 30.07 in 10.0 mi SW 8.1 mph - N/A   Clear
10:35 AM 64.6 °F - 31.8 °F 29% 30.07 in 10.0 mi SW 6.9 mph - N/A   Clear
10:55 AM 67.5 °F - 30.6 °F 25% 30.06 in 10.0 mi WSW 8.1 mph - N/A   Clear
11:15 AM 70.0 °F - 29.3 °F 22% 30.06 in 10.0 mi WSW 9.2 mph - N/A   Clear
11:35 AM 72.7 °F - 29.3 °F 20% 30.06 in 10.0 mi WSW 6.9 mph - N/A   Clear
11:55 AM 73.8 °F - 25.3 °F 16% 30.05 in 10.0 mi West 5.8 mph - N/A   Clear
12:15 PM 75.0 °F - 25.9 °F 16% 30.05 in 10.0 mi West 9.2 mph - N/A   Clear
12:35 PM 75.6 °F - 26.4 °F 16% 30.04 in 10.0 mi WNW 9.2 mph - N/A   Clear
12:55 PM 76.5 °F - 26.4 °F 16% 30.03 in 10.0 mi NW 8.1 mph - N/A   Clear
1:15 PM 77.5 °F - 26.2 °F 15% 30.02 in 10.0 mi West 10.4 mph 19.6 mph N/A   Clear
1:35 PM 78.4 °F - 26.2 °F 15% 30.01 in 10.0 mi WSW 8.1 mph - N/A   Clear
1:55 PM 79.3 °F - 26.4 °F 14% 30.00 in 10.0 mi WSW 8.1 mph - N/A   Clear
2:15 PM 80.1 °F - 26.2 °F 14% 29.99 in 10.0 mi West 13.8 mph - N/A   Clear
2:30 PM - - - N/A% - - North - - N/A   Unknown
2:55 PM 79.7 °F - 26.1 °F 14% 29.96 in 10.0 mi WSW 11.5 mph - N/A   Unknown
3:15 PM 80.8 °F - 25.7 °F 13% 29.96 in 10.0 mi West 6.9 mph - N/A   Clear
3:35 PM 80.6 °F - 25.9 °F 13% 29.95 in 10.0 mi SW 6.9 mph - N/A   Clear
3:55 PM 80.8 °F - 25.9 °F 13% 29.95 in 10.0 mi WSW 6.9 mph - N/A   Clear
4:15 PM 81.1 °F - 25.7 °F 13% 29.95 in 10.0 mi West 9.2 mph - N/A   Clear
4:35 PM 81.1 °F - 25.9 °F 13% 29.94 in 10.0 mi West 9.2 mph - N/A   Clear
4:55 PM 80.4 °F - 26.1 °F 14% 29.94 in 10.0 mi SW 6.9 mph - N/A   Clear
5:15 PM 80.6 °F - 26.2 °F 14% 29.94 in 10.0 mi West 9.2 mph - N/A   Clear
5:35 PM 79.9 °F - 25.7 °F 14% 29.94 in 10.0 mi WSW 10.4 mph - N/A   Clear
5:55 PM 79.5 °F - 25.3 °F 14% 29.94 in 10.0 mi WSW 8.1 mph - N/A   Clear
6:15 PM 78.4 °F - 25.3 °F 14% 29.94 in 10.0 mi WSW 8.1 mph - N/A   Clear
6:35 PM 76.5 °F - 25.0 °F 15% 29.94 in 10.0 mi West 5.8 mph - N/A   Clear
6:55 PM 73.2 °F - 25.7 °F 17% 29.94 in 10.0 mi West 3.5 mph - N/A   Clear
7:15 PM 71.1 °F - 25.7 °F 18% 29.95 in 10.0 mi West 4.6 mph - N/A   Clear
7:35 PM 70.7 °F - 25.2 °F 18% 29.95 in 10.0 mi West 3.5 mph - N/A   Clear
7:55 PM 69.3 °F - 25.3 °F 19% 29.95 in 10.0 mi WSW 4.6 mph - N/A   Clear
8:15 PM 64.9 °F - 27.0 °F 24% 29.96 in 10.0 mi South 3.5 mph - N/A   Clear
8:35 PM 64.8 °F - 27.3 °F 24% 29.97 in 10.0 mi SSW 4.6 mph - N/A   Clear
8:55 PM 64.0 °F - 27.0 °F 25% 29.97 in 10.0 mi SW 4.6 mph - N/A   Clear
9:15 PM 61.7 °F - 27.5 °F 27% 29.97 in 10.0 mi SW 3.5 mph - N/A   Clear
9:35 PM 59.2 °F - 28.0 °F 31% 29.97 in 10.0 mi Calm Calm - N/A   Clear
9:55 PM 54.1 °F - 28.8 °F 38% 29.98 in 10.0 mi Calm Calm - N/A   Clear
10:15 PM 54.9 °F - 27.9 °F 35% 29.98 in 10.0 mi NW 4.6 mph - N/A   Clear
10:35 PM 55.8 °F - 27.3 °F 34% 29.98 in 10.0 mi NNW 4.6 mph - N/A   Clear
10:55 PM 54.0 °F - 27.7 °F 36% 30.00 in 10.0 mi Calm Calm - N/A   Clear
11:15 PM 57.9 °F - 28.6 °F 33% 30.02 in 10.0 mi NE 10.4 mph - N/A   Clear
11:35 PM 57.2 °F - 29.8 °F 35% 30.03 in 10.0 mi ENE 9.2 mph - N/A   Clear
11:55 PM 56.5 °F - 30.2 °F 37% 30.03 in 10.0 mi NE 8.1 mph - N/A   Clear